Time,TemperatureF,DewpointF,PressureIn,WindDirection,WindDirectionDegrees,WindSpeedMPH,WindSpeedGustMPH,Humidity,HourlyPrecipIn,Conditions,Clouds,dailyrainin,SoftwareType,DateUTC
2013-02-08 00:02:00,33.0,33.0,-100.00,NE,55,10.0,17.0,99,-99.99,,,-99.99,,2013-02-08 05:02:00,
2013-02-08 00:12:00,33.0,33.0,-100.00,ENE,65,7.0,17.0,99,-99.99,,,-99.99,,2013-02-08 05:12:00,
2013-02-08 00:22:00,33.0,33.0,-100.00,NNE,30,9.0,11.0,99,-99.99,,,-99.99,,2013-02-08 05:22:00,
2013-02-08 00:32:00,33.0,33.0,-100.00,NE,50,7.0,12.0,99,-99.99,,,-99.99,,2013-02-08 05:32:00,
2013-02-08 00:42:00,33.0,33.0,-100.00,NE,55,6.0,13.0,99,-99.99,,,-99.99,,2013-02-08 05:42:00,
2013-02-08 00:52:00,33.0,33.0,-100.00,ENE,65,6.0,14.0,99,-99.99,,,-99.99,,2013-02-08 05:52:00,
2013-02-08 01:02:00,33.0,33.0,-100.00,ENE,60,7.0,12.0,99,-99.99,,,-99.99,,2013-02-08 06:02:00,
2013-02-08 01:11:00,33.0,33.0,-100.00,ENE,70,9.0,13.0,99,-99.99,,,-99.99,,2013-02-08 06:11:00,
2013-02-08 01:21:00,33.0,33.0,-100.00,East,90,4.0,11.0,99,-99.99,,,-99.99,,2013-02-08 06:21:00,
2013-02-08 01:32:00,33.0,33.0,-100.00,East,80,6.0,11.0,99,-99.99,,,-99.99,,2013-02-08 06:32:00,
2013-02-08 01:42:00,33.0,33.0,-100.00,East,80,7.0,12.0,99,-99.99,,,-99.99,,2013-02-08 06:42:00,
2013-02-08 01:51:00,33.0,33.0,-100.00,ENE,60,7.0,12.0,99,-99.99,,,-99.99,,2013-02-08 06:51:00,
2013-02-08 02:01:00,33.0,33.0,-100.00,ENE,75,5.0,12.0,99,-99.99,,,-99.99,,2013-02-08 07:01:00,
2013-02-08 02:11:00,33.0,33.0,-100.00,NE,55,7.0,9.0,99,-99.99,,,-99.99,,2013-02-08 07:11:00,
2013-02-08 02:21:00,33.0,33.0,-100.00,ENE,70,8.0,12.0,99,-99.99,,,-99.99,,2013-02-08 07:21:00,
2013-02-08 02:32:00,33.0,33.0,-100.00,ENE,60,9.0,14.0,99,-99.99,,,-99.99,,2013-02-08 07:32:00,
2013-02-08 02:42:00,33.0,33.0,-100.00,ENE,65,9.0,12.0,100,-99.99,,,-99.99,,2013-02-08 07:42:00,
2013-02-08 02:51:00,33.0,33.0,-100.00,ENE,65,7.0,12.0,100,-99.99,,,-99.99,,2013-02-08 07:51:00,
2013-02-08 03:01:00,33.0,33.0,-100.00,ENE,65,7.0,12.0,100,-99.99,,,-99.99,,2013-02-08 08:01:00,
2013-02-08 03:11:00,33.0,33.0,-100.00,ESE,115,1.0,10.0,99,-99.99,,,-99.99,,2013-02-08 08:11:00,
2013-02-08 03:21:00,33.0,33.0,-100.00,NE,50,4.0,9.0,100,-99.99,,,-99.99,,2013-02-08 08:21:00,
2013-02-08 03:32:00,33.0,33.0,-100.00,NE,40,4.0,8.0,99,-99.99,,,-99.99,,2013-02-08 08:32:00,
2013-02-08 03:42:00,33.0,33.0,-100.00,NE,40,4.0,9.0,100,-99.99,,,-99.99,,2013-02-08 08:42:00,
2013-02-08 03:52:00,33.0,33.0,-100.00,ENE,60,4.0,8.0,99,-99.99,,,-99.99,,2013-02-08 08:52:00,
2013-02-08 04:03:00,33.0,33.0,-100.00,NNE,25,4.0,6.0,99,-99.99,,,-99.99,,2013-02-08 09:03:00,
2013-02-08 04:11:00,33.0,33.0,-100.00,NNE,25,4.0,6.0,99,-99.99,,,-99.99,,2013-02-08 09:11:00,
2013-02-08 04:21:00,33.0,33.0,-100.00,North,5,4.0,6.0,100,-99.99,,,-99.99,,2013-02-08 09:21:00,
2013-02-08 04:32:00,33.0,33.0,-100.00,NNW,330,4.0,6.0,99,-99.99,,,-99.99,,2013-02-08 09:32:00,
2013-02-08 04:42:00,33.0,33.0,-100.00,NNW,330,4.0,7.0,100,-99.99,,,-99.99,,2013-02-08 09:42:00,
2013-02-08 04:52:00,33.0,33.0,-100.00,NNW,340,3.0,6.0,100,-99.99,,,-99.99,,2013-02-08 09:52:00,
2013-02-08 05:01:00,33.0,33.0,-100.00,NNW,340,4.0,6.0,100,-99.99,,,-99.99,,2013-02-08 10:01:00,
2013-02-08 05:12:00,33.0,33.0,-100.00,NW,320,3.0,6.0,99,-99.99,,,-99.99,,2013-02-08 10:12:00,
2013-02-08 05:22:00,33.0,33.0,-100.00,NW,325,4.0,6.0,100,-99.99,,,-99.99,,2013-02-08 10:22:00,
2013-02-08 05:32:00,33.0,33.0,-100.00,NW,325,4.0,6.0,100,-99.99,,,-99.99,,2013-02-08 10:32:00,
2013-02-08 05:42:00,33.0,33.0,-100.00,NNW,330,6.0,11.0,99,-99.99,,,-99.99,,2013-02-08 10:42:00,
2013-02-08 05:51:00,33.0,33.0,-100.00,NW,320,6.0,11.0,99,-99.99,,,-99.99,,2013-02-08 10:51:00,
2013-02-08 06:01:00,33.0,33.0,-100.00,NW,320,6.0,11.0,99,-99.99,,,-99.99,,2013-02-08 11:01:00,
2013-02-08 06:11:00,33.0,33.0,-100.00,NW,320,6.0,11.0,99,-99.99,,,-99.99,,2013-02-08 11:11:00,
2013-02-08 06:21:00,32.0,32.0,-100.00,NNW,335,9.0,13.0,99,-99.99,,,-99.99,,2013-02-08 11:21:00,
2013-02-08 06:32:00,32.0,32.0,-100.00,NW,325,10.0,16.0,99,-99.99,,,-99.99,,2013-02-08 11:32:00,
2013-02-08 06:42:00,31.0,31.0,-100.00,NW,325,9.0,15.0,99,-99.99,,,-99.99,,2013-02-08 11:42:00,
2013-02-08 06:52:00,31.0,31.0,-100.00,NW,320,6.0,14.0,99,-99.99,,,-99.99,,2013-02-08 11:52:00,
2013-02-08 07:02:00,31.0,31.0,-100.00,NW,320,11.0,16.0,99,-99.99,,,-99.99,,2013-02-08 12:02:00,
2013-02-08 07:11:00,31.0,31.0,-100.00,NW,320,9.0,15.0,99,-99.99,,,-99.99,,2013-02-08 12:11:00,
2013-02-08 07:22:00,31.0,31.0,-100.00,NW,320,9.0,15.0,99,-99.99,,,-99.99,,2013-02-08 12:22:00,
2013-02-08 07:33:00,31.0,31.0,-100.00,NW,325,6.0,13.0,100,-99.99,,,-99.99,,2013-02-08 12:33:00,
2013-02-08 07:42:00,31.0,31.0,-100.00,NW,320,5.0,15.0,99,-99.99,,,-99.99,,2013-02-08 12:42:00,
2013-02-08 07:52:00,31.0,31.0,-100.00,NNW,330,11.0,14.0,99,-99.99,,,-99.99,,2013-02-08 12:52:00,
2013-02-08 08:02:00,30.0,30.0,-100.00,NW,315,6.0,16.0,99,-99.99,,,-99.99,,2013-02-08 13:02:00,
2013-02-08 08:12:00,30.0,30.0,-100.00,North,350,7.0,13.0,99,-99.99,,,-99.99,,2013-02-08 13:12:00,
2013-02-08 08:22:00,30.0,30.0,-100.00,NNW,330,9.0,14.0,99,-99.99,,,-99.99,,2013-02-08 13:22:00,
2013-02-08 08:32:00,30.0,30.0,-100.00,NNW,340,9.0,16.0,99,-99.99,,,-99.99,,2013-02-08 13:32:00,
2013-02-08 08:42:00,30.0,30.0,-100.00,NNW,340,7.0,12.0,99,-99.99,,,-99.99,,2013-02-08 13:42:00,
2013-02-08 08:51:00,30.0,30.0,-100.00,NW,320,7.0,16.0,99,-99.99,,,-99.99,,2013-02-08 13:51:00,
2013-02-08 09:02:00,30.0,30.0,-100.00,NW,310,9.0,13.0,99,-99.99,,,-99.99,,2013-02-08 14:02:00,
2013-02-08 09:11:00,30.0,30.0,-100.00,NW,320,8.0,12.0,99,-99.99,,,-99.99,,2013-02-08 14:11:00,
2013-02-08 09:22:00,30.0,30.0,-100.00,NNW,335,9.0,16.0,99,-99.99,,,-99.99,,2013-02-08 14:22:00,
2013-02-08 09:32:00,30.0,30.0,-100.00,NNW,335,11.0,16.0,99,-99.99,,,-99.99,,2013-02-08 14:32:00,
2013-02-08 09:42:00,30.0,30.0,-100.00,NW,325,11.0,17.0,99,-99.99,,,-99.99,,2013-02-08 14:42:00,
2013-02-08 09:52:00,30.0,30.0,-100.00,North,0,11.0,17.0,99,-99.99,,,-99.99,,2013-02-08 14:52:00,
2013-02-08 10:02:00,30.0,30.0,-100.00,North,0,10.0,17.0,99,-99.99,,,-99.99,,2013-02-08 15:02:00,
2013-02-08 10:11:00,30.0,30.0,-100.00,NNW,335,11.0,19.0,99,-99.99,,,-99.99,,2013-02-08 15:11:00,
2013-02-08 10:22:00,29.0,29.0,-100.00,North,0,13.0,19.0,99,-99.99,,,-99.99,,2013-02-08 15:22:00,
2013-02-08 10:32:00,29.0,29.0,-100.00,NNW,345,11.0,19.0,99,-99.99,,,-99.99,,2013-02-08 15:32:00,
2013-02-08 10:42:00,29.0,29.0,-100.00,North,10,12.0,19.0,99,-99.99,,,-99.99,,2013-02-08 15:42:00,
2013-02-08 10:52:00,29.0,29.0,-100.00,NNW,335,13.0,22.0,99,-99.99,,,-99.99,,2013-02-08 15:52:00,
2013-02-08 11:02:00,29.0,29.0,-100.00,North,0,9.0,19.0,99,-99.99,,,-99.99,,2013-02-08 16:02:00,
2013-02-08 11:11:00,30.0,29.0,-100.00,North,355,9.0,17.0,98,-99.99,,,-99.99,,2013-02-08 16:11:00,
2013-02-08 11:22:00,30.0,29.0,-100.00,NNW,345,11.0,23.0,96,-99.99,,,-99.99,,2013-02-08 16:22:00,
2013-02-08 11:32:00,30.0,28.0,-100.00,NW,320,13.0,24.0,94,-99.99,,,-99.99,,2013-02-08 16:32:00,
2013-02-08 11:42:00,29.0,28.0,-100.00,NNW,330,12.0,19.0,94,-99.99,,,-99.99,,2013-02-08 16:42:00,
2013-02-08 11:52:00,29.0,28.0,-100.00,North,0,11.0,21.0,93,-99.99,,,-99.99,,2013-02-08 16:52:00,
2013-02-08 12:04:00,29.0,27.0,-100.00,NW,320,11.0,22.0,92,-99.99,,,-99.99,,2013-02-08 17:04:00,
2013-02-08 12:12:00,29.0,27.0,-100.00,North,350,11.0,24.0,90,-99.99,,,-99.99,,2013-02-08 17:12:00,
2013-02-08 12:23:00,29.0,27.0,-100.00,North,0,11.0,19.0,90,-99.99,,,-99.99,,2013-02-08 17:23:00,
2013-02-08 12:33:00,29.0,26.0,-100.00,North,0,13.0,21.0,89,-99.99,,,-99.99,,2013-02-08 17:33:00,
2013-02-08 12:42:00,29.0,26.0,-100.00,North,355,20.0,29.0,88,-99.99,,,-99.99,,2013-02-08 17:42:00,
2013-02-08 12:52:00,29.0,25.0,-100.00,North,5,14.0,22.0,87,-99.99,,,-99.99,,2013-02-08 17:52:00,
2013-02-08 13:03:00,29.0,25.0,-100.00,North,0,11.0,21.0,87,-99.99,,,-99.99,,2013-02-08 18:03:00,
2013-02-08 13:12:00,29.0,25.0,-100.00,North,355,9.0,20.0,87,-99.99,,,-99.99,,2013-02-08 18:12:00,
2013-02-08 13:24:00,29.0,26.0,-100.00,North,355,7.0,15.0,87,-99.99,,,-99.99,,2013-02-08 18:24:00,
2013-02-08 13:35:00,28.0,25.0,-100.00,North,350,13.0,18.0,87,-99.99,,,-99.99,,2013-02-08 18:35:00,
2013-02-08 13:43:00,28.0,25.0,-100.00,NNW,340,7.0,19.0,87,-99.99,,,-99.99,,2013-02-08 18:43:00,
2013-02-08 13:52:00,28.0,25.0,-100.00,NNW,340,9.0,16.0,87,-99.99,,,-99.99,,2013-02-08 18:52:00,
2013-02-08 14:02:00,28.0,25.0,-100.00,NNW,345,9.0,17.0,87,-99.99,,,-99.99,,2013-02-08 19:02:00,
2013-02-08 14:11:00,28.0,24.0,-100.00,North,0,16.0,25.0,86,-99.99,,,-99.99,,2013-02-08 19:11:00,
2013-02-08 14:22:00,28.0,25.0,-100.00,NW,310,8.0,19.0,86,-99.99,,,-99.99,,2013-02-08 19:22:00,
2013-02-08 14:32:00,28.0,24.0,-100.00,North,0,11.0,20.0,85,-99.99,,,-99.99,,2013-02-08 19:32:00,
2013-02-08 14:42:00,27.0,24.0,-100.00,NNW,340,10.0,25.0,85,-99.99,,,-99.99,,2013-02-08 19:42:00,
2013-02-08 14:52:00,27.0,24.0,-100.00,NNW,340,13.0,20.0,85,-99.99,,,-99.99,,2013-02-08 19:52:00,
2013-02-08 15:02:00,27.0,23.0,-100.00,North,0,12.0,19.0,85,-99.99,,,-99.99,,2013-02-08 20:02:00,
2013-02-08 15:12:00,28.0,24.0,-100.00,North,355,9.0,19.0,85,-99.99,,,-99.99,,2013-02-08 20:12:00,
2013-02-08 15:22:00,27.0,23.0,-100.00,NNW,345,15.0,23.0,84,-99.99,,,-99.99,,2013-02-08 20:22:00,
2013-02-08 15:32:00,27.0,23.0,-100.00,North,355,9.0,21.0,84,-99.99,,,-99.99,,2013-02-08 20:32:00,
2013-02-08 15:42:00,27.0,23.0,-100.00,NNW,345,11.0,19.0,84,-99.99,,,-99.99,,2013-02-08 20:42:00,
2013-02-08 15:52:00,28.0,24.0,-100.00,NNW,335,12.0,18.0,84,-99.99,,,-99.99,,2013-02-08 20:52:00,
2013-02-08 16:02:00,28.0,24.0,-100.00,North,5,9.0,25.0,84,-99.99,,,-99.99,,2013-02-08 21:02:00,
2013-02-08 16:11:00,28.0,24.0,-100.00,NNW,340,9.0,20.0,84,-99.99,,,-99.99,,2013-02-08 21:11:00,
2013-02-08 16:22:00,28.0,24.0,-100.00,North,355,7.0,18.0,84,-99.99,,,-99.99,,2013-02-08 21:22:00,
2013-02-08 16:32:00,28.0,23.0,-100.00,North,355,11.0,18.0,82,-99.99,,,-99.99,,2013-02-08 21:32:00,
2013-02-08 16:42:00,28.0,23.0,-100.00,North,5,9.0,16.0,82,-99.99,,,-99.99,,2013-02-08 21:42:00,
2013-02-08 16:52:00,28.0,24.0,-100.00,NNW,340,10.0,15.0,82,-99.99,,,-99.99,,2013-02-08 21:52:00,
2013-02-08 17:02:00,28.0,23.0,-100.00,NNW,345,13.0,18.0,82,-99.99,,,-99.99,,2013-02-08 22:02:00,
2013-02-08 17:11:00,28.0,23.0,-100.00,North,0,9.0,18.0,82,-99.99,,,-99.99,,2013-02-08 22:11:00,
2013-02-08 17:22:00,28.0,23.0,-100.00,NNW,345,12.0,21.0,81,-99.99,,,-99.99,,2013-02-08 22:22:00,
2013-02-08 17:32:00,28.0,23.0,-100.00,North,355,11.0,19.0,80,-99.99,,,-99.99,,2013-02-08 22:32:00,
2013-02-08 17:42:00,28.0,23.0,-100.00,NNW,345,12.0,20.0,80,-99.99,,,-99.99,,2013-02-08 22:42:00,
2013-02-08 17:52:00,28.0,22.0,-100.00,North,0,10.0,20.0,79,-99.99,,,-99.99,,2013-02-08 22:52:00,
2013-02-08 18:02:00,28.0,22.0,-100.00,North,0,12.0,17.0,79,-99.99,,,-99.99,,2013-02-08 23:02:00,
2013-02-08 18:11:00,28.0,22.0,-100.00,NNE,15,9.0,16.0,79,-99.99,,,-99.99,,2013-02-08 23:11:00,
2013-02-08 18:21:00,28.0,22.0,-100.00,North,5,8.0,14.0,79,-99.99,,,-99.99,,2013-02-08 23:21:00,
2013-02-08 18:32:00,28.0,22.0,-100.00,North,0,6.0,11.0,79,-99.99,,,-99.99,,2013-02-08 23:32:00,
2013-02-08 18:42:00,28.0,22.0,-100.00,North,5,5.0,9.0,79,-99.99,,,-99.99,,2013-02-08 23:42:00,
2013-02-08 18:52:00,27.0,22.0,-100.00,North,0,4.0,7.0,79,-99.99,,,-99.99,,2013-02-08 23:52:00,
2013-02-08 19:02:00,27.0,22.0,-100.00,NNW,345,4.0,7.0,80,-99.99,,,-99.99,,2013-02-09 00:02:00,
2013-02-08 19:11:00,27.0,22.0,-100.00,North,5,4.0,6.0,80,-99.99,,,-99.99,,2013-02-09 00:11:00,
2013-02-08 19:22:00,27.0,22.0,-100.00,NNW,340,2.0,4.0,81,-99.99,,,-99.99,,2013-02-09 00:22:00,
2013-02-08 19:32:00,26.0,22.0,-100.00,NNW,340,2.0,4.0,81,-99.99,,,-99.99,,2013-02-09 00:32:00,
2013-02-08 19:42:00,26.0,22.0,-100.00,NNW,335,2.0,3.0,82,-99.99,,,-99.99,,2013-02-09 00:42:00,
2013-02-08 19:52:00,26.0,22.0,-100.00,NNW,335,2.0,6.0,82,-99.99,,,-99.99,,2013-02-09 00:52:00,
2013-02-08 20:02:00,26.0,22.0,-100.00,NNW,340,4.0,6.0,83,-99.99,,,-99.99,,2013-02-09 01:02:00,
2013-02-08 20:11:00,26.0,22.0,-100.00,NNW,340,4.0,7.0,83,-99.99,,,-99.99,,2013-02-09 01:11:00,
2013-02-08 20:22:00,26.0,21.0,-100.00,NNW,330,2.0,5.0,83,-99.99,,,-99.99,,2013-02-09 01:22:00,
2013-02-08 20:32:00,25.0,21.0,-100.00,NNW,335,2.0,5.0,83,-99.99,,,-99.99,,2013-02-09 01:32:00,
2013-02-08 20:42:00,25.0,21.0,-100.00,North,5,2.0,5.0,83,-99.99,,,-99.99,,2013-02-09 01:42:00,
2013-02-08 20:52:00,25.0,21.0,-100.00,North,350,3.0,4.0,83,-99.99,,,-99.99,,2013-02-09 01:52:00,
2013-02-08 21:01:00,25.0,21.0,-100.00,NNW,345,3.0,4.0,84,-99.99,,,-99.99,,2013-02-09 02:01:00,
2013-02-08 21:11:00,25.0,20.0,-100.00,North,350,3.0,6.0,84,-99.99,,,-99.99,,2013-02-09 02:11:00,
2013-02-08 21:21:00,25.0,21.0,-100.00,North,5,4.0,8.0,84,-99.99,,,-99.99,,2013-02-09 02:21:00,
2013-02-08 21:32:00,25.0,21.0,-100.00,North,0,7.0,12.0,84,-99.99,,,-99.99,,2013-02-09 02:32:00,
2013-02-08 21:42:00,24.0,20.0,-100.00,North,350,4.0,7.0,84,-99.99,,,-99.99,,2013-02-09 02:42:00,
2013-02-08 21:52:00,24.0,20.0,-100.00,North,5,4.0,7.0,84,-99.99,,,-99.99,,2013-02-09 02:52:00,
2013-02-08 22:02:00,24.0,20.0,-100.00,NNW,340,4.0,9.0,84,-99.99,,,-99.99,,2013-02-09 03:02:00,
2013-02-08 22:11:00,24.0,20.0,-100.00,NNW,335,3.0,5.0,84,-99.99,,,-99.99,,2013-02-09 03:11:00,
2013-02-08 22:22:00,24.0,20.0,-100.00,NNW,340,3.0,6.0,84,-99.99,,,-99.99,,2013-02-09 03:22:00,
2013-02-08 22:32:00,24.0,20.0,-100.00,NNW,330,3.0,4.0,84,-99.99,,,-99.99,,2013-02-09 03:32:00,
2013-02-08 22:42:00,23.0,19.0,-100.00,NNW,330,4.0,6.0,84,-99.99,,,-99.99,,2013-02-09 03:42:00,
2013-02-08 22:52:00,23.0,19.0,-100.00,NW,325,3.0,4.0,84,-99.99,,,-99.99,,2013-02-09 03:52:00,
2013-02-08 23:03:00,23.0,19.0,-100.00,NNW,330,3.0,5.0,85,-99.99,,,-99.99,,2013-02-09 04:03:00,
2013-02-08 23:12:00,23.0,19.0,-100.00,NNW,335,3.0,5.0,85,-99.99,,,-99.99,,2013-02-09 04:12:00,
2013-02-08 23:23:00,23.0,19.0,-100.00,NW,320,3.0,5.0,85,-99.99,,,-99.99,,2013-02-09 04:23:00,
2013-02-08 23:32:00,22.0,19.0,-100.00,NW,325,3.0,6.0,86,-99.99,,,-99.99,,2013-02-09 04:32:00,
2013-02-08 23:42:00,22.0,19.0,-100.00,NW,325,3.0,5.0,86,-99.99,,,-99.99,,2013-02-09 04:42:00,
2013-02-08 23:52:00,22.0,19.0,-100.00,NNW,340,4.0,6.0,87,-99.99,,,-99.99,,2013-02-09 04:52:00,